Flag for Germany Weather past 2 weeks in Wertheim, Baden-Württemberg, Germany

Now
61 °F

Partly sunny.


Feels Like: 61 °F
Forecast: 47 / 64 °F
Wind: 6 mph from West

Location: Wuerzburg

Current Time: Apr 26, 2015 at 12:27:23 PM

Latest Report: Apr 26, 2015 at 12:00 PM


Visibility: 34 mi

Pressure: 29.82 "Hg

Humidity: 66%

Dew point: 49 °F

Location of WertheimLocation

Historic Weather in Wertheim — Graph

°F

Wertheim temperature yesterday

Maximum temperature yesterday: 64 °F (at 3:00 PM)
Minimum temperature yesterday: 43 °F (at 7:00 AM)
Average temperature yesterday: 53 °F

Past Weeks' High & Low Weather Summary

 TemperatureHumidityPressure
High76 °F (Apr 15, 4:00 PM)93% (Apr 26, 5:00 AM)30.49 "Hg (Apr 26, 5:00 AM)
Low32 °F (Apr 19, 6:00 AM)20% (Apr 15, 7:00 PM)29.82 "Hg (Apr 25, 4:00 PM)
Average54 °F55%30.18 "Hg
* Reported Apr 11 11:00 AM — Apr 26 11:00 AM, Wertheim, Weather by CustomWeather, © 2015

Note: Actual official high and low records may vary slightly from our data, if they occured in-between our weather recording intervals... More about our weather records

Advertising

Wertheim weather history for previous 24 hours

 ConditionsComfort  
Time TempWeatherWind HumidityBarometerVisibility
11:00 AM
Sun, Apr 26
61 °FOvercast.3 mph67%29.82 "Hg28 mi
10:00 AM58 °FOvercast.6 mph75%29.83 "Hg28 mi
9:00 AM57 °FPartly sunny.5 mph82%29.84 "Hg22 mi
8:00 AM54 °FPartly sunny.3 mph90%29.85 "Hg9 mi
7:00 AM53 °FOvercast.2 mph92%29.85 "Hg9 mi
6:00 AM53 °FOvercast.2 mph91%29.84 "Hg9 mi
5:00 AM53 °FOvercast.2 mph93%29.85 "Hg9 mi
4:00 AM54 °FLow clouds.2 mph88%29.85 "Hg8 mi
3:00 AM53 °FOvercast.2 mph92%29.86 "Hg7 mi
2:00 AM53 °FLow clouds.2 mph91%29.86 "Hg9 mi
1:00 AM54 °FLight rain. Overcast.2 mph91%29.86 "Hg9 mi
12:00 AM53 °FOvercast.1 mph92%29.86 "Hg12 mi
11:00 PM
Sat, Apr 25
53 °FOvercast.2 mph92%29.86 "Hg11 mi
10:00 PM54 °FOvercast.3 mph91%29.86 "Hg11 mi
9:00 PM55 °FRain. Overcast.5 mph89%29.87 "Hg9 mi
8:00 PM56 °FRain. Overcast.6 mph83%29.85 "Hg14 mi
7:00 PM57 °FRain. Overcast.5 mph81%29.85 "Hg12 mi
6:00 PM58 °FRain. Overcast.7 mph73%29.85 "Hg12 mi
5:00 PM62 °FRain. Overcast.8 mph58%29.83 "Hg19 mi
4:00 PM64 °FLight rain. Overcast.9 mph52%29.82 "Hg22 mi
3:00 PM64 °FOvercast.8 mph50%29.83 "Hg25 mi
2:00 PM63 °FOvercast.5 mph52%29.85 "Hg25 mi
1:00 PM59 °FOvercast.3 mph60%29.88 "Hg19 mi
12:00 PM57 °FLight rain. Overcast.5 mph60%29.89 "Hg14 mi
Weather by CustomWeather, © 2015

See weather overviewHow to use our weather pages